Back to catalog

STARLINK-38225

AliveCommunicationsSSO
NORAD 100194·PAYLOAD·🇺🇸 United States

Launched Aug 1, 2026 from Vandenberg Space Force Base

Loading…

Next Passes (next 24 hours)

TLE

FreshSource: Space-Track

Epoch: Sep 14, 2026, 12:13 UTC

1 A0194U 26175R   26257.50937549  .00181629  00000-0  11901-2 0  9990
2 A0194  97.2829  99.6565 0001592  92.2083 267.9365 15.75243351  8231

Track STARLINK-38225 in real time with AllMySat

Download on the App Store